Time,TemperatureF,DewpointF,PressureIn,WindDirection,WindDirectionDegrees,WindSpeedMPH,WindSpeedGustMPH,Humidity,HourlyPrecipIn,Conditions,Clouds,dailyrainin,SoftwareType,DateUTC
2013-06-28 00:02:00,60.0,49.0,-100.00,NW,323,3.0,6.0,67,0.00,,,0.00,,2013-06-28 06:02:00,
2013-06-28 00:22:00,60.0,49.0,-100.00,WNW,301,3.0,6.0,68,0.00,,,0.00,,2013-06-28 06:22:00,
2013-06-28 00:33:00,59.0,49.0,-100.00,NNW,329,4.0,5.0,70,0.00,,,0.00,,2013-06-28 06:33:00,
2013-06-28 00:42:00,58.0,49.0,-100.00,NW,318,3.0,4.0,72,0.00,,,0.00,,2013-06-28 06:42:00,
2013-06-28 01:01:00,58.0,49.0,-100.00,NW,318,3.0,4.0,72,0.00,,,0.00,,2013-06-28 07:01:00,
2013-06-28 01:11:00,56.0,49.0,-100.00,NW,308,3.0,4.0,76,0.00,,,0.00,,2013-06-28 07:11:00,
2013-06-28 01:22:00,56.0,49.0,-100.00,NW,308,3.0,4.0,76,0.00,,,0.00,,2013-06-28 07:22:00,
2013-06-28 01:33:00,56.0,49.0,-100.00,NW,308,3.0,4.0,76,0.00,,,0.00,,2013-06-28 07:33:00,
2013-06-28 01:42:00,56.0,49.0,-100.00,NW,308,3.0,4.0,76,0.00,,,0.00,,2013-06-28 07:42:00,
2013-06-28 02:00:00,58.0,49.0,-100.00,NW,312,7.0,9.0,71,0.00,,,0.00,,2013-06-28 08:00:00,
2013-06-28 02:01:00,56.0,48.0,-100.00,WNW,301,5.0,6.0,75,0.00,,,0.00,,2013-06-28 08:01:00,
2013-06-28 02:11:00,56.0,48.0,-100.00,WNW,301,5.0,6.0,75,0.00,,,0.00,,2013-06-28 08:11:00,
2013-06-28 02:21:00,56.0,48.0,-100.00,WNW,301,5.0,6.0,75,0.00,,,0.00,,2013-06-28 08:21:00,
2013-06-28 02:33:00,57.0,49.0,-100.00,NW,304,6.0,8.0,73,0.00,,,0.00,,2013-06-28 08:33:00,
2013-06-28 02:43:00,58.0,49.0,-100.00,NW,312,7.0,9.0,71,0.00,,,0.00,,2013-06-28 08:43:00,
2013-06-28 02:52:00,58.0,49.0,-100.00,NW,312,7.0,9.0,71,0.00,,,0.00,,2013-06-28 08:52:00,
2013-06-28 03:11:00,56.0,49.0,-100.00,NW,309,4.0,6.0,77,0.00,,,0.00,,2013-06-28 09:11:00,
2013-06-28 03:22:00,56.0,49.0,-100.00,NW,309,4.0,6.0,77,0.00,,,0.00,,2013-06-28 09:22:00,
2013-06-28 03:33:00,56.0,49.0,-100.00,NW,309,4.0,6.0,77,0.00,,,0.00,,2013-06-28 09:33:00,
2013-06-28 03:42:00,54.0,48.0,-100.00,WNW,292,4.0,5.0,78,0.00,,,0.00,,2013-06-28 09:42:00,
2013-06-28 04:02:00,54.0,48.0,-100.00,WNW,292,4.0,5.0,78,0.00,,,0.00,,2013-06-28 10:02:00,
2013-06-28 04:11:00,54.0,48.0,-100.00,WNW,292,4.0,5.0,78,0.00,,,0.00,,2013-06-28 10:11:00,
2013-06-28 04:33:00,53.0,47.0,-100.00,NW,312,3.0,4.0,80,0.00,,,0.00,,2013-06-28 10:33:00,
2013-06-28 04:42:00,52.0,47.0,-100.00,NW,308,2.0,3.0,81,0.00,,,0.00,,2013-06-28 10:42:00,
2013-06-28 05:01:00,52.0,47.0,-100.00,NW,308,2.0,3.0,81,0.00,,,0.00,,2013-06-28 11:01:00,
2013-06-28 05:11:00,53.0,47.0,-100.00,WNW,288,2.0,3.0,82,0.00,,,0.00,,2013-06-28 11:11:00,
2013-06-28 05:22:00,53.0,47.0,-100.00,WNW,288,2.0,3.0,82,0.00,,,0.00,,2013-06-28 11:22:00,
2013-06-28 05:34:00,53.0,47.0,-100.00,WNW,288,2.0,3.0,82,0.00,,,0.00,,2013-06-28 11:34:00,
2013-06-28 05:42:00,52.0,47.0,-100.00,WNW,284,2.0,2.0,85,0.00,,,0.00,,2013-06-28 11:42:00,
2013-06-28 05:53:00,52.0,47.0,-100.00,WNW,284,2.0,2.0,85,0.00,,,0.00,,2013-06-28 11:53:00,
2013-06-28 06:01:00,51.0,47.0,-100.00,WNW,302,1.0,2.0,86,0.00,,,0.00,,2013-06-28 12:01:00,
2013-06-28 06:12:00,51.0,47.0,-100.00,WNW,302,1.0,2.0,86,0.00,,,0.00,,2013-06-28 12:12:00,
2013-06-28 06:30:00,52.0,48.0,-100.00,NW,315,2.0,3.0,84,0.00,,,0.00,,2013-06-28 12:30:00,
2013-06-28 06:33:00,51.0,47.0,-100.00,West,265,2.0,2.0,88,0.00,,,0.00,,2013-06-28 12:33:00,
2013-06-28 06:43:00,52.0,47.0,-100.00,WNW,287,0.0,1.0,84,0.00,,,0.00,,2013-06-28 12:43:00,
2013-06-28 06:52:00,52.0,47.0,-100.00,WNW,287,0.0,1.0,84,0.00,,,0.00,,2013-06-28 12:52:00,
2013-06-28 07:01:00,52.0,48.0,-100.00,NW,315,2.0,3.0,84,0.00,,,0.00,,2013-06-28 13:01:00,
2013-06-28 07:11:00,52.0,48.0,-100.00,NW,315,2.0,3.0,84,0.00,,,0.00,,2013-06-28 13:11:00,
2013-06-28 07:23:00,52.0,48.0,-100.00,NW,315,2.0,3.0,84,0.00,,,0.00,,2013-06-28 13:23:00,
2013-06-28 07:43:00,59.0,47.0,-100.00,SSE,158,1.0,2.0,65,0.00,,,0.00,,2013-06-28 13:43:00,
2013-06-28 07:53:00,59.0,47.0,-100.00,SSE,158,1.0,2.0,65,0.00,,,0.00,,2013-06-28 13:53:00,
2013-06-28 08:01:00,59.0,47.0,-100.00,SSE,158,1.0,2.0,65,0.00,,,0.00,,2013-06-28 14:01:00,
2013-06-28 08:22:00,62.0,47.0,-100.00,SE,127,3.0,5.0,59,0.00,,,0.00,,2013-06-28 14:22:00,
2013-06-28 08:33:00,62.0,47.0,-100.00,SE,127,3.0,5.0,59,0.00,,,0.00,,2013-06-28 14:33:00,
2013-06-28 08:44:00,63.0,47.0,-100.00,ESE,106,4.0,6.0,57,0.00,,,0.00,,2013-06-28 14:44:00,
2013-06-28 08:53:00,63.0,47.0,-100.00,ESE,106,4.0,6.0,57,0.00,,,0.00,,2013-06-28 14:53:00,
2013-06-28 09:02:00,63.0,47.0,-100.00,ESE,112,5.0,7.0,56,0.00,,,0.00,,2013-06-28 15:02:00,
2013-06-28 09:11:00,63.0,47.0,-100.00,ESE,112,5.0,7.0,56,0.00,,,0.00,,2013-06-28 15:11:00,
2013-06-28 09:24:00,63.0,47.0,-100.00,ESE,112,5.0,7.0,56,0.00,,,0.00,,2013-06-28 15:24:00,
2013-06-28 09:33:00,64.0,48.0,-100.00,ESE,120,5.0,8.0,56,0.00,,,0.00,,2013-06-28 15:33:00,
2013-06-28 09:43:00,66.0,49.0,-100.00,SE,133,6.0,8.0,54,0.00,,,0.00,,2013-06-28 15:43:00,
2013-06-28 09:52:00,66.0,49.0,-100.00,SE,133,6.0,8.0,54,0.00,,,0.00,,2013-06-28 15:52:00,
2013-06-28 10:01:00,66.0,48.0,-100.00,SE,130,6.0,8.0,53,0.00,,,0.00,,2013-06-28 16:01:00,
2013-06-28 10:11:00,67.0,49.0,-100.00,ESE,114,6.0,8.0,53,0.00,,,0.00,,2013-06-28 16:11:00,
2013-06-28 10:33:00,68.0,49.0,-100.00,SE,124,6.0,8.0,52,0.00,,,0.00,,2013-06-28 16:33:00,
2013-06-28 10:44:00,69.0,48.0,-100.00,ESE,119,6.0,9.0,47,0.00,,,0.00,,2013-06-28 16:44:00,
2013-06-28 10:53:00,69.0,48.0,-100.00,ESE,119,6.0,9.0,47,0.00,,,0.00,,2013-06-28 16:53:00,
2013-06-28 11:02:00,69.0,48.0,-100.00,ESE,119,6.0,9.0,47,0.00,,,0.00,,2013-06-28 17:02:00,
2013-06-28 11:11:00,72.0,48.0,-100.00,SE,133,6.0,9.0,44,0.00,,,0.00,,2013-06-28 17:11:00,
2013-06-28 11:33:00,72.0,48.0,-100.00,ESE,121,6.0,9.0,42,0.00,,,0.00,,2013-06-28 17:33:00,
2013-06-28 11:44:00,73.0,48.0,-100.00,SE,134,5.0,7.0,41,0.00,,,0.00,,2013-06-28 17:44:00,
2013-06-28 11:52:00,73.0,48.0,-100.00,SE,134,5.0,7.0,41,0.00,,,0.00,,2013-06-28 17:52:00,
2013-06-28 12:01:00,73.0,45.0,-100.00,ESE,106,3.0,6.0,37,0.00,,,0.00,,2013-06-28 18:01:00,
2013-06-28 12:11:00,73.0,45.0,-100.00,ESE,106,3.0,6.0,37,0.00,,,0.00,,2013-06-28 18:11:00,
2013-06-28 12:22:00,73.0,45.0,-100.00,ESE,106,3.0,6.0,37,0.00,,,0.00,,2013-06-28 18:22:00,
2013-06-28 12:43:00,75.0,46.0,-100.00,West,270,1.0,3.0,36,0.00,,,0.00,,2013-06-28 18:43:00,
2013-06-28 13:01:00,75.0,46.0,-100.00,West,270,1.0,3.0,36,0.00,,,0.00,,2013-06-28 19:01:00,
2013-06-28 13:11:00,75.0,46.0,-100.00,West,270,1.0,3.0,36,0.00,,,0.00,,2013-06-28 19:11:00,
2013-06-28 13:22:00,74.0,45.0,-100.00,NW,326,9.0,12.0,35,0.00,,,0.00,,2013-06-28 19:22:00,
2013-06-28 13:32:00,74.0,45.0,-100.00,NW,326,9.0,12.0,36,0.00,,,0.00,,2013-06-28 19:32:00,
2013-06-28 13:43:00,74.0,44.0,-100.00,NNW,333,8.0,13.0,34,0.00,,,0.00,,2013-06-28 19:43:00,
2013-06-28 14:02:00,74.0,44.0,-100.00,NNW,333,8.0,13.0,34,0.00,,,0.00,,2013-06-28 20:02:00,
2013-06-28 14:11:00,75.0,46.0,-100.00,NNW,328,10.0,12.0,35,0.00,,,0.00,,2013-06-28 20:11:00,
2013-06-28 14:22:00,75.0,46.0,-100.00,NNW,328,10.0,12.0,35,0.00,,,0.00,,2013-06-28 20:22:00,
2013-06-28 14:33:00,76.0,47.0,-100.00,WNW,298,6.0,12.0,35,0.00,,,0.00,,2013-06-28 20:33:00,
2013-06-28 14:43:00,77.0,46.0,-100.00,NNW,328,9.0,12.0,33,0.00,,,0.00,,2013-06-28 20:43:00,
2013-06-28 14:52:00,77.0,46.0,-100.00,NNW,328,9.0,12.0,33,0.00,,,0.00,,2013-06-28 20:52:00,
2013-06-28 15:01:00,77.0,46.0,-100.00,NNW,328,9.0,12.0,33,0.00,,,0.00,,2013-06-28 21:01:00,
2013-06-28 15:11:00,76.0,46.0,-100.00,NW,326,10.0,15.0,34,0.00,,,0.00,,2013-06-28 21:11:00,
2013-06-28 15:34:00,77.0,47.0,-100.00,NNW,332,10.0,12.0,34,0.00,,,0.00,,2013-06-28 21:34:00,
2013-06-28 15:43:00,79.0,47.0,-100.00,NW,309,7.0,12.0,32,0.00,,,0.00,,2013-06-28 21:43:00,
2013-06-28 16:01:00,77.0,48.0,-100.00,NNW,328,11.0,12.0,36,0.00,,,0.00,,2013-06-28 22:01:00,
2013-06-28 16:11:00,77.0,48.0,-100.00,NNW,328,11.0,12.0,36,0.00,,,0.00,,2013-06-28 22:11:00,
2013-06-28 16:22:00,77.0,48.0,-100.00,NNW,328,11.0,12.0,36,0.00,,,0.00,,2013-06-28 22:22:00,
2013-06-28 16:30:00,79.0,47.0,-100.00,NW,325,10.0,15.0,32,0.00,,,0.00,,2013-06-28 22:30:00,
2013-06-28 16:33:00,77.0,48.0,-100.00,NW,326,10.0,14.0,35,0.00,,,0.00,,2013-06-28 22:33:00,
2013-06-28 16:43:00,78.0,47.0,-100.00,NW,315,9.0,12.0,33,0.00,,,0.00,,2013-06-28 22:43:00,
2013-06-28 17:01:00,77.0,47.0,-100.00,WNW,294,6.0,11.0,35,0.00,,,0.00,,2013-06-28 23:01:00,
2013-06-28 17:23:00,79.0,47.0,-100.00,NW,325,10.0,15.0,32,0.00,,,0.00,,2013-06-28 23:23:00,
2013-06-28 17:43:00,79.0,47.0,-100.00,NW,323,8.0,12.0,32,0.00,,,0.00,,2013-06-28 23:43:00,
2013-06-28 18:01:00,78.0,47.0,-100.00,NNW,330,12.0,16.0,33,0.00,,,0.00,,2013-06-29 00:01:00,
2013-06-28 18:11:00,78.0,47.0,-100.00,NNW,330,12.0,16.0,33,0.00,,,0.00,,2013-06-29 00:11:00,
2013-06-28 18:22:00,78.0,47.0,-100.00,NNW,330,12.0,16.0,33,0.00,,,0.00,,2013-06-29 00:22:00,
2013-06-28 18:33:00,80.0,47.0,-100.00,NW,313,7.0,11.0,31,0.00,,,0.00,,2013-06-29 00:33:00,
2013-06-28 18:42:00,79.0,47.0,-100.00,NW,316,10.0,13.0,33,0.00,,,0.00,,2013-06-29 00:42:00,
2013-06-28 18:52:00,79.0,47.0,-100.00,NW,316,10.0,13.0,33,0.00,,,0.00,,2013-06-29 00:52:00,
2013-06-28 19:01:00,78.0,46.0,-100.00,NW,323,9.0,13.0,32,0.00,,,0.00,,2013-06-29 01:01:00,
2013-06-28 19:11:00,78.0,46.0,-100.00,NW,320,8.0,11.0,32,0.00,,,0.00,,2013-06-29 01:11:00,
2013-06-28 19:22:00,78.0,46.0,-100.00,NW,320,8.0,11.0,32,0.00,,,0.00,,2013-06-29 01:22:00,
2013-06-28 19:31:00,78.0,46.0,-100.00,NW,320,8.0,11.0,32,0.00,,,0.00,,2013-06-29 01:31:00,
2013-06-28 19:42:00,76.0,47.0,-100.00,NW,320,11.0,15.0,36,0.00,,,0.00,,2013-06-29 01:42:00,
2013-06-28 20:01:00,76.0,47.0,-100.00,NW,320,11.0,15.0,36,0.00,,,0.00,,2013-06-29 02:01:00,
2013-06-28 20:10:00,76.0,47.0,-100.00,NW,319,7.0,10.0,35,0.00,,,0.00,,2013-06-29 02:10:00,
2013-06-28 20:21:00,76.0,47.0,-100.00,NW,319,7.0,10.0,35,0.00,,,0.00,,2013-06-29 02:21:00,
2013-06-28 20:31:00,76.0,47.0,-100.00,NW,315,7.0,12.0,36,0.00,,,0.00,,2013-06-29 02:31:00,
2013-06-28 20:41:00,73.0,48.0,-100.00,WNW,298,5.0,8.0,42,0.00,,,0.00,,2013-06-29 02:41:00,
2013-06-28 21:01:00,73.0,48.0,-100.00,WNW,298,5.0,8.0,42,0.00,,,0.00,,2013-06-29 03:01:00,
2013-06-28 21:11:00,69.0,49.0,-100.00,NW,315,4.0,6.0,49,0.00,,,0.00,,2013-06-29 03:11:00,
2013-06-28 21:21:00,69.0,49.0,-100.00,NW,315,4.0,6.0,49,0.00,,,0.00,,2013-06-29 03:21:00,
2013-06-28 21:31:00,69.0,51.0,-100.00,NW,325,3.0,5.0,53,0.00,,,0.00,,2013-06-29 03:31:00,
2013-06-28 21:41:00,67.0,51.0,-100.00,NNW,337,2.0,3.0,56,0.00,,,0.00,,2013-06-29 03:41:00,
2013-06-28 21:51:00,67.0,51.0,-100.00,NNW,337,2.0,3.0,56,0.00,,,0.00,,2013-06-29 03:51:00,
2013-06-28 22:01:00,67.0,51.0,-100.00,NNW,337,2.0,3.0,56,0.00,,,0.00,,2013-06-29 04:01:00,
2013-06-28 22:10:00,66.0,49.0,-100.00,NW,323,4.0,4.0,54,0.00,,,0.00,,2013-06-29 04:10:00,
2013-06-28 22:22:00,66.0,49.0,-100.00,NW,323,4.0,4.0,54,0.00,,,0.00,,2013-06-29 04:22:00,
2013-06-28 22:31:00,66.0,49.0,-100.00,NW,323,4.0,4.0,54,0.00,,,0.00,,2013-06-29 04:31:00,
2013-06-28 22:41:00,65.0,47.0,-100.00,NW,312,4.0,5.0,52,0.00,,,0.00,,2013-06-29 04:41:00,
2013-06-28 23:01:00,65.0,47.0,-100.00,NW,312,4.0,5.0,52,0.00,,,0.00,,2013-06-29 05:01:00,
2013-06-28 23:10:00,65.0,48.0,-100.00,NNW,330,5.0,6.0,54,0.00,,,0.00,,2013-06-29 05:10:00,
2013-06-28 23:21:00,65.0,48.0,-100.00,NNW,330,5.0,6.0,54,0.00,,,0.00,,2013-06-29 05:21:00,
2013-06-28 23:31:00,66.0,48.0,-100.00,NW,319,6.0,8.0,51,0.00,,,0.00,,2013-06-29 05:31:00,
2013-06-28 23:41:00,64.0,49.0,-100.00,NW,313,6.0,8.0,56,0.00,,,0.00,,2013-06-29 05:41:00,
2013-06-28 23:52:00,64.0,49.0,-100.00,NW,313,6.0,8.0,56,0.00,,,0.00,,2013-06-29 05:52:00,